When you browse on this site, cookies collect data to enhance your experience and personalize the content and advertising you see.
Visit our Privacy Policy to learn more. By continuing to use the site, you agree to this use of cookies and data.
  • en Suisse
  • Liste des pays
  • À 7 jours
  • Température de l'eau
  • Carte satellitaire
  • Carte météo
  • Widgets météo
  • user-avatar
    Se connecter

    Météo par heure à Plesna

    Ce jour, 19 Février, Mardi

    Heure Température Précipitation Vent Pression Humidité
    00:00 +2°C° 0 mm 2 m/s 742 mmHg 85%
    01:00 +1°C° 0 mm 2 m/s 742 mmHg 86%
    02:00 +1°C° 0 mm 2 m/s 742 mmHg 86%
    03:00 +1°C° 0 mm 2 m/s 742 mmHg 87%
    04:00 +1°C° 0 mm 2 m/s 742 mmHg 88%
    05:00 0°C° 0 mm 3 m/s 741 mmHg 88%
    06:00 0°C° 0 mm 3 m/s 741 mmHg 87%
    07:00 +1°C° 0 mm 3 m/s 741 mmHg 86%
    08:00 0°C° 0 mm 4 m/s 741 mmHg 85%
    09:00 +1°C° 0 mm 4 m/s 741 mmHg 81%
    10:00 +3°C° 0 mm 4 m/s 740 mmHg 77%
    11:00 +3°C° 0 mm 5 m/s 740 mmHg 73%
    12:00 +5°C° 0 mm 5 m/s 740 mmHg 71%
    13:00 +6°C° 0 mm 5 m/s 739 mmHg 69%
    14:00 +7°C° 0 mm 5 m/s 739 mmHg 67%
    15:00 +6°C° 0 mm 5 m/s 739 mmHg 70%
    16:00 +6°C° 0 mm 4 m/s 738 mmHg 72%
    17:00 +6°C° 0 mm 4 m/s 738 mmHg 74%
    18:00 +5°C° 0 mm 4 m/s 737 mmHg 78%
    19:00 +4°C° 0 mm 4 m/s 737 mmHg 82%
    20:00 +3°C° 0 mm 4 m/s 737 mmHg 85%
    21:00 +3°C° 0 mm 4 m/s 737 mmHg 86%
    22:00 +3°C° 0 mm 4 m/s 736 mmHg 86%
    23:00 +1°C° 0 mm 4 m/s 736 mmHg 86%

    Demain, 20 Février, Mercredi

    Heure Température Précipitation Vent Pression Humidité
    00:00 +1°C° 0 mm 4 m/s 736 mmHg 86%
    01:00 +1°C° 0 mm 4 m/s 736 mmHg 85%
    02:00 0°C° 0 mm 4 m/s 736 mmHg 84%
    03:00 0°C° 0 mm 4 m/s 735 mmHg 85%
    04:00 0°C° 0 mm 4 m/s 735 mmHg 87%
    05:00 0°C° 0 mm 4 m/s 735 mmHg 88%
    06:00 0°C° 0.1 mm 4 m/s 735 mmHg 88%
    07:00 0°C° 0.1 mm 4 m/s 735 mmHg 89%
    08:00 0°C° 0.1 mm 5 m/s 735 mmHg 89%
    09:00 +1°C° 0.1 mm 5 m/s 735 mmHg 86%
    10:00 +2°C° 0.1 mm 5 m/s 736 mmHg 83%
    11:00 +3°C° 0.1 mm 6 m/s 736 mmHg 79%
    12:00 +3°C° 0.1 mm 6 m/s 736 mmHg 78%
    13:00 +3°C° 0.1 mm 6 m/s 736 mmHg 77%
    14:00 +3°C° 0.1 mm 6 m/s 736 mmHg 76%
    15:00 +3°C° 0.1 mm 6 m/s 736 mmHg 73%
    16:00 +3°C° 0.1 mm 5 m/s 736 mmHg 70%
    17:00 +3°C° 0.1 mm 5 m/s 737 mmHg 67%
    18:00 +2°C° 0 mm 5 m/s 737 mmHg 70%
    19:00 +2°C° 0 mm 5 m/s 737 mmHg 73%
    20:00 +1°C° 0 mm 5 m/s 737 mmHg 75%
    21:00 +1°C° 0 mm 5 m/s 737 mmHg 76%
    22:00 +1°C° 0 mm 5 m/s 737 mmHg 77%
    23:00 +1°C° 0 mm 6 m/s 737 mmHg 78%

    Après-demain, 21 Février, Jeudi

    Heure Température Précipitation Vent Pression Humidité
    00:00 -1°C° 0 mm 6 m/s 738 mmHg 80%
    01:00 -1°C° 0 mm 6 m/s 738 mmHg 82%
    02:00 -1°C° 0 mm 6 m/s 738 mmHg 84%
    03:00 -2°C° 0 mm 6 m/s 738 mmHg 84%
    04:00 -2°C° 0 mm 6 m/s 738 mmHg 84%
    05:00 -2°C° 0 mm 6 m/s 738 mmHg 84%
    06:00 -2°C° 0 mm 6 m/s 738 mmHg 84%
    07:00 -2°C° 0 mm 6 m/s 739 mmHg 85%
    08:00 -1°C° 0 mm 5 m/s 739 mmHg 85%
    09:00 -1°C° 0 mm 6 m/s 739 mmHg 80%
    10:00 -1°C° 0 mm 6 m/s 739 mmHg 76%
    11:00 0°C° 0 mm 7 m/s 739 mmHg 71%
    12:00 +2°C° 0 mm 7 m/s 739 mmHg 69%
    13:00 +2°C° 0 mm 7 m/s 739 mmHg 67%
    14:00 +3°C° 0 mm 7 m/s 738 mmHg 65%
    15:00 +3°C° 0.1 mm 6 m/s 738 mmHg 71%
    16:00 +2°C° 0.1 mm 5 m/s 738 mmHg 77%
    17:00 +3°C° 0.1 mm 4 m/s 738 mmHg 83%
    18:00 +3°C° 0.2 mm 4 m/s 738 mmHg 86%
    19:00 +3°C° 0.2 mm 3 m/s 738 mmHg 89%
    20:00 +3°C° 0.2 mm 3 m/s 738 mmHg 91%
    21:00 +2°C° 0.4 mm 3 m/s 738 mmHg 92%
    22:00 +2°C° 0.4 mm 3 m/s 738 mmHg 92%
    23:00 +3°C° 0.4 mm 2 m/s 738 mmHg 93%

    22 Février, Vendredi

    Heure Température Précipitation Vent Pression Humidité
    00:00 +1°C° 0.2 mm 3 m/s 738 mmHg 90%
    01:00 0°C° 0.2 mm 3 m/s 738 mmHg 86%
    02:00 -1°C° 0.2 mm 3 m/s 738 mmHg 83%
    03:00 -1°C° 0.2 mm 3 m/s 738 mmHg 83%
    04:00 -3°C° 0.2 mm 4 m/s 738 mmHg 84%
    05:00 -3°C° 0.2 mm 4 m/s 738 mmHg 84%
    06:00 -4°C° 0.3 mm 4 m/s 739 mmHg 83%
    07:00 -5°C° 0.3 mm 5 m/s 739 mmHg 82%
    08:00 -6°C° 0.3 mm 5 m/s 740 mmHg 81%
    09:00 -6°C° 0.1 mm 5 m/s 741 mmHg 75%
    10:00 -5°C° 0.1 mm 6 m/s 742 mmHg 70%
    11:00 -5°C° 0.1 mm 6 m/s 742 mmHg 65%
    12:00 -5°C° 0 mm 6 m/s 743 mmHg 62%
    13:00 -6°C° 0 mm 7 m/s 744 mmHg 58%
    14:00 -7°C° 0 mm 7 m/s 745 mmHg 55%
    15:00 -7°C° 0 mm 7 m/s 745 mmHg 54%
    16:00 -8°C° 0 mm 6 m/s 746 mmHg 53%
    17:00 -8°C° 0 mm 6 m/s 746 mmHg 52%
    18:00 -9°C° 0 mm 6 m/s 747 mmHg 52%
    19:00 -9°C° 0 mm 6 m/s 748 mmHg 52%
    20:00 -10°C° 0 mm 5 m/s 748 mmHg 52%
    21:00 -10°C° 0 mm 5 m/s 749 mmHg 51%
    22:00 -10°C° 0 mm 5 m/s 749 mmHg 51%
    23:00 -10°C° 0 mm 5 m/s 750 mmHg 50%

    23 Février, Samedi

    Heure Température Précipitation Vent Pression Humidité
    00:00 -10°C° 0 mm 5 m/s 750 mmHg 51%
    01:00 -9°C° 0 mm 4 m/s 750 mmHg 53%
    02:00 -9°C° 0 mm 4 m/s 750 mmHg 54%
    03:00 -9°C° 0 mm 4 m/s 750 mmHg 55%
    04:00 -9°C° 0 mm 4 m/s 750 mmHg 56%
    05:00 -9°C° 0 mm 4 m/s 750 mmHg 57%
    06:00 -9°C° 0 mm 4 m/s 750 mmHg 58%
    07:00 -10°C° 0 mm 5 m/s 750 mmHg 60%
    08:00 -10°C° 0 mm 5 m/s 751 mmHg 62%
    09:00 -10°C° 0 mm 5 m/s 751 mmHg 59%
    10:00 -8°C° 0 mm 5 m/s 751 mmHg 57%
    11:00 -8°C° 0 mm 5 m/s 751 mmHg 55%
    12:00 -7°C° 0 mm 5 m/s 751 mmHg 52%
    13:00 -6°C° 0 mm 5 m/s 750 mmHg 49%
    14:00 -6°C° 0 mm 5 m/s 750 mmHg 45%
    15:00 -6°C° 0 mm 5 m/s 750 mmHg 47%
    16:00 -6°C° 0 mm 5 m/s 750 mmHg 48%
    17:00 -5°C° 0 mm 4 m/s 749 mmHg 50%
    18:00 -5°C° 0 mm 4 m/s 749 mmHg 52%
    19:00 -5°C° 0 mm 4 m/s 749 mmHg 54%
    20:00 -5°C° 0 mm 3 m/s 749 mmHg 56%
    21:00 -5°C° 0 mm 3 m/s 749 mmHg 58%
    22:00 -6°C° 0 mm 3 m/s 749 mmHg 59%
    23:00 -5°C° 0 mm 2 m/s 749 mmHg 60%

    24 Février, Dimanche

    Heure Température Précipitation Vent Pression Humidité
    00:00 -5°C° 0 mm 2 m/s 749 mmHg 62%
    01:00 -5°C° 0 mm 2 m/s 749 mmHg 63%
    02:00 -6°C° 0 mm 2 m/s 749 mmHg 65%
    03:00 -6°C° 0 mm 2 m/s 750 mmHg 67%
    04:00 -6°C° 0 mm 2 m/s 750 mmHg 68%
    05:00 -4°C° 0 mm 1 m/s 750 mmHg 70%
    06:00 -6°C° 0 mm 1 m/s 750 mmHg 70%
    07:00 -6°C° 0 mm 1 m/s 750 mmHg 70%
    08:00 -6°C° 0 mm 1 m/s 751 mmHg 70%
    09:00 -6°C° 0 mm 2 m/s 751 mmHg 64%
    10:00 -5°C° 0 mm 2 m/s 751 mmHg 59%
    11:00 -5°C° 0 mm 3 m/s 751 mmHg 53%
    12:00 -5°C° 0 mm 3 m/s 751 mmHg 47%
    13:00 -4°C° 0 mm 3 m/s 751 mmHg 42%
    14:00 -2°C° 0 mm 3 m/s 751 mmHg 37%
    15:00 -3°C° 0 mm 2 m/s 750 mmHg 37%
    16:00 -3°C° 0 mm 2 m/s 750 mmHg 37%
    17:00 -3°C° 0 mm 2 m/s 750 mmHg 38%
    18:00 -4°C° 0 mm 2 m/s 750 mmHg 40%
    19:00 -2°C° 0 mm 1 m/s 750 mmHg 42%
    20:00 -3°C° 0 mm 1 m/s 750 mmHg 44%
    21:00 -3°C° 0 mm 1 m/s 749 mmHg 44%
    22:00 -3°C° 0 mm 1 m/s 749 mmHg 45%
    23:00 -3°C° 0 mm 1 m/s 748 mmHg 45%
    Voir plus